Time,TemperatureF,DewpointF,PressureIn,WindDirection,WindDirectionDegrees,WindSpeedMPH,WindSpeedGustMPH,Humidity,HourlyPrecipIn,Conditions,Clouds,dailyrainin,SoftwareType,DateUTC
2013-01-14 00:00:00,-15.0,-99.9,-100.00,SE,125,4.0,6.0,-999,-99.99,,,-99.99,,2013-01-14 07:00:00,
2013-01-14 00:33:00,-15.0,-99.9,-100.00,SE,125,4.0,6.0,-999,-99.99,,,-99.99,,2013-01-14 07:33:00,
2013-01-14 00:43:00,-15.0,-99.9,-100.00,SE,125,4.0,6.0,-999,-99.99,,,-99.99,,2013-01-14 07:43:00,
2013-01-14 00:53:00,-15.0,-99.9,-100.00,SE,125,4.0,6.0,-999,-99.99,,,-99.99,,2013-01-14 07:53:00,
2013-01-14 01:00:00,-14.0,-99.9,-100.00,SSE,148,8.0,9.0,-999,-99.99,,,-99.99,,2013-01-14 08:00:00,
2013-01-14 01:33:00,-14.0,-99.9,-100.00,SSE,148,8.0,9.0,-999,-99.99,,,-99.99,,2013-01-14 08:33:00,
2013-01-14 01:43:00,-14.0,-99.9,-100.00,SSE,148,8.0,9.0,-999,-99.99,,,-99.99,,2013-01-14 08:43:00,
2013-01-14 01:53:00,-14.0,-99.9,-100.00,SSE,148,8.0,9.0,-999,-99.99,,,-99.99,,2013-01-14 08:53:00,
2013-01-14 02:00:00,-15.0,-99.9,-100.00,WNW,282,1.0,1.0,-999,-99.99,,,-99.99,,2013-01-14 09:00:00,
2013-01-14 02:34:00,-15.0,-99.9,-100.00,WNW,282,1.0,1.0,-999,-99.99,,,-99.99,,2013-01-14 09:34:00,
2013-01-14 02:43:00,-15.0,-99.9,-100.00,WNW,282,1.0,1.0,-999,-99.99,,,-99.99,,2013-01-14 09:43:00,
2013-01-14 02:53:00,-15.0,-99.9,-100.00,WNW,282,1.0,1.0,-999,-99.99,,,-99.99,,2013-01-14 09:53:00,
2013-01-14 03:00:00,-18.0,-99.9,-100.00,East,83,3.0,4.0,-999,-99.99,,,-99.99,,2013-01-14 10:00:00,
2013-01-14 03:33:00,-18.0,-99.9,-100.00,East,83,3.0,4.0,-999,-99.99,,,-99.99,,2013-01-14 10:33:00,
2013-01-14 03:43:00,-18.0,-99.9,-100.00,East,83,3.0,4.0,-999,-99.99,,,-99.99,,2013-01-14 10:43:00,
2013-01-14 03:53:00,-18.0,-99.9,-100.00,East,83,3.0,4.0,-999,-99.99,,,-99.99,,2013-01-14 10:53:00,
2013-01-14 04:00:00,-16.0,-99.9,-100.00,ESE,109,5.0,6.0,-999,-99.99,,,-99.99,,2013-01-14 11:00:00,
2013-01-14 04:33:00,-16.0,-99.9,-100.00,ESE,109,5.0,6.0,-999,-99.99,,,-99.99,,2013-01-14 11:33:00,
2013-01-14 04:43:00,-16.0,-99.9,-100.00,ESE,109,5.0,6.0,-999,-99.99,,,-99.99,,2013-01-14 11:43:00,
2013-01-14 04:53:00,-16.0,-99.9,-100.00,ESE,109,5.0,6.0,-999,-99.99,,,-99.99,,2013-01-14 11:53:00,
2013-01-14 05:00:00,-21.0,-99.9,-100.00,ESE,110,7.0,8.0,-999,-99.99,,,-99.99,,2013-01-14 12:00:00,
2013-01-14 05:33:00,-21.0,-99.9,-100.00,ESE,110,7.0,8.0,-999,-99.99,,,-99.99,,2013-01-14 12:33:00,
2013-01-14 05:43:00,-21.0,-99.9,-100.00,ESE,110,7.0,8.0,-999,-99.99,,,-99.99,,2013-01-14 12:43:00,
2013-01-14 05:53:00,-21.0,-99.9,-100.00,ESE,110,7.0,8.0,-999,-99.99,,,-99.99,,2013-01-14 12:53:00,
2013-01-14 06:00:00,-15.0,-99.9,-100.00,SE,136,5.0,5.0,-999,-99.99,,,-99.99,,2013-01-14 13:00:00,
2013-01-14 06:34:00,-15.0,-99.9,-100.00,SE,136,5.0,5.0,-999,-99.99,,,-99.99,,2013-01-14 13:34:00,
2013-01-14 06:43:00,-15.0,-99.9,-100.00,SE,136,5.0,5.0,-999,-99.99,,,-99.99,,2013-01-14 13:43:00,
2013-01-14 06:53:00,-15.0,-99.9,-100.00,SE,136,5.0,5.0,-999,-99.99,,,-99.99,,2013-01-14 13:53:00,
2013-01-14 07:00:00,-22.0,-99.9,-100.00,North,355,0.0,1.0,-999,-99.99,,,-99.99,,2013-01-14 14:00:00,
2013-01-14 07:33:00,-22.0,-99.9,-100.00,North,355,0.0,1.0,-999,-99.99,,,-99.99,,2013-01-14 14:33:00,
2013-01-14 07:43:00,-22.0,-99.9,-100.00,North,355,0.0,1.0,-999,-99.99,,,-99.99,,2013-01-14 14:43:00,
2013-01-14 07:53:00,-22.0,-99.9,-100.00,North,355,0.0,1.0,-999,-99.99,,,-99.99,,2013-01-14 14:53:00,
2013-01-14 08:00:00,-18.0,-99.9,-100.00,West,265,1.0,1.0,-999,-99.99,,,-99.99,,2013-01-14 15:00:00,
2013-01-14 08:34:00,-18.0,-99.9,-100.00,West,265,1.0,1.0,-999,-99.99,,,-99.99,,2013-01-14 15:34:00,
2013-01-14 08:43:00,-18.0,-99.9,-100.00,West,265,1.0,1.0,-999,-99.99,,,-99.99,,2013-01-14 15:43:00,
2013-01-14 08:54:00,-18.0,-99.9,-100.00,West,265,1.0,1.0,-999,-99.99,,,-99.99,,2013-01-14 15:54:00,
2013-01-14 09:00:00,-9.0,-99.9,-100.00,NE,41,0.0,0.0,-999,-99.99,,,-99.99,,2013-01-14 16:00:00,
2013-01-14 09:33:00,-9.0,-99.9,-100.00,NE,41,0.0,0.0,-999,-99.99,,,-99.99,,2013-01-14 16:33:00,
2013-01-14 09:43:00,-9.0,-99.9,-100.00,NE,41,0.0,0.0,-999,-99.99,,,-99.99,,2013-01-14 16:43:00,
2013-01-14 09:54:00,-9.0,-99.9,-100.00,NE,41,0.0,0.0,-999,-99.99,,,-99.99,,2013-01-14 16:54:00,
2013-01-14 11:00:00,1.0,-99.9,-100.00,ENE,78,0.0,1.0,-999,-99.99,,,-99.99,,2013-01-14 18:00:00,
2013-01-14 11:34:00,1.0,-99.9,-100.00,ENE,78,0.0,1.0,-999,-99.99,,,-99.99,,2013-01-14 18:34:00,
2013-01-14 11:43:00,1.0,-99.9,-100.00,ENE,78,0.0,1.0,-999,-99.99,,,-99.99,,2013-01-14 18:43:00,
2013-01-14 11:53:00,1.0,-99.9,-100.00,ENE,78,0.0,1.0,-999,-99.99,,,-99.99,,2013-01-14 18:53:00,
2013-01-14 12:00:00,-1.0,-99.9,-100.00,WSW,246,2.0,2.0,-999,-99.99,,,-99.99,,2013-01-14 19:00:00,
2013-01-14 12:33:00,-1.0,-99.9,-100.00,WSW,246,2.0,2.0,-999,-99.99,,,-99.99,,2013-01-14 19:33:00,
2013-01-14 12:43:00,-1.0,-99.9,-100.00,WSW,246,2.0,2.0,-999,-99.99,,,-99.99,,2013-01-14 19:43:00,
2013-01-14 12:53:00,-1.0,-99.9,-100.00,WSW,246,2.0,2.0,-999,-99.99,,,-99.99,,2013-01-14 19:53:00,
2013-01-14 13:00:00,7.0,-99.9,-100.00,East,91,1.0,2.0,-999,-99.99,,,-99.99,,2013-01-14 20:00:00,
2013-01-14 13:34:00,7.0,-99.9,-100.00,East,91,1.0,2.0,-999,-99.99,,,-99.99,,2013-01-14 20:34:00,
2013-01-14 13:43:00,7.0,-99.9,-100.00,East,91,1.0,2.0,-999,-99.99,,,-99.99,,2013-01-14 20:43:00,
2013-01-14 13:53:00,7.0,-99.9,-100.00,East,91,1.0,2.0,-999,-99.99,,,-99.99,,2013-01-14 20:53:00,
2013-01-14 14:00:00,7.0,-99.9,-100.00,NNW,347,6.0,6.0,-999,-99.99,,,-99.99,,2013-01-14 21:00:00,
2013-01-14 14:33:00,7.0,-99.9,-100.00,NNW,347,6.0,6.0,-999,-99.99,,,-99.99,,2013-01-14 21:33:00,
2013-01-14 14:43:00,7.0,-99.9,-100.00,NNW,347,6.0,6.0,-999,-99.99,,,-99.99,,2013-01-14 21:43:00,
2013-01-14 14:54:00,7.0,-99.9,-100.00,NNW,347,6.0,6.0,-999,-99.99,,,-99.99,,2013-01-14 21:54:00,
2013-01-14 15:00:00,5.0,-99.9,-100.00,North,352,4.0,7.0,-999,-99.99,,,-99.99,,2013-01-14 22:00:00,
2013-01-14 15:33:00,5.0,-99.9,-100.00,North,352,4.0,7.0,-999,-99.99,,,-99.99,,2013-01-14 22:33:00,
2013-01-14 15:43:00,5.0,-99.9,-100.00,North,352,4.0,7.0,-999,-99.99,,,-99.99,,2013-01-14 22:43:00,
2013-01-14 15:53:00,5.0,-99.9,-100.00,North,352,4.0,7.0,-999,-99.99,,,-99.99,,2013-01-14 22:53:00,
2013-01-14 16:00:00,5.0,-99.9,-100.00,NNW,335,4.0,6.0,-999,-99.99,,,-99.99,,2013-01-14 23:00:00,
2013-01-14 16:33:00,5.0,-99.9,-100.00,NNW,335,4.0,6.0,-999,-99.99,,,-99.99,,2013-01-14 23:33:00,
2013-01-14 16:43:00,5.0,-99.9,-100.00,NNW,335,4.0,6.0,-999,-99.99,,,-99.99,,2013-01-14 23:43:00,
2013-01-14 16:53:00,5.0,-99.9,-100.00,NNW,335,4.0,6.0,-999,-99.99,,,-99.99,,2013-01-14 23:53:00,
2013-01-14 19:00:00,-9.0,-99.9,-100.00,NE,48,0.0,1.0,-999,-99.99,,,-99.99,,2013-01-15 02:00:00,
2013-01-14 19:33:00,-9.0,-99.9,-100.00,NE,48,0.0,1.0,-999,-99.99,,,-99.99,,2013-01-15 02:33:00,
2013-01-14 19:43:00,-9.0,-99.9,-100.00,NE,48,0.0,1.0,-999,-99.99,,,-99.99,,2013-01-15 02:43:00,
2013-01-14 19:53:00,-9.0,-99.9,-100.00,NE,48,0.0,1.0,-999,-99.99,,,-99.99,,2013-01-15 02:53:00,
2013-01-14 20:00:00,-9.0,-99.9,-100.00,East,79,3.0,4.0,-999,-99.99,,,-99.99,,2013-01-15 03:00:00,
2013-01-14 20:33:00,-9.0,-99.9,-100.00,East,79,3.0,4.0,-999,-99.99,,,-99.99,,2013-01-15 03:33:00,
2013-01-14 20:43:00,-9.0,-99.9,-100.00,East,79,3.0,4.0,-999,-99.99,,,-99.99,,2013-01-15 03:43:00,
2013-01-14 20:53:00,-9.0,-99.9,-100.00,East,79,3.0,4.0,-999,-99.99,,,-99.99,,2013-01-15 03:53:00,
2013-01-14 21:00:00,-8.0,-99.9,-100.00,ENE,74,6.0,7.0,-999,-99.99,,,-99.99,,2013-01-15 04:00:00,
2013-01-14 21:33:00,-8.0,-99.9,-100.00,ENE,74,6.0,7.0,-999,-99.99,,,-99.99,,2013-01-15 04:33:00,
2013-01-14 21:43:00,-8.0,-99.9,-100.00,ENE,74,6.0,7.0,-999,-99.99,,,-99.99,,2013-01-15 04:43:00,
2013-01-14 21:53:00,-8.0,-99.9,-100.00,ENE,74,6.0,7.0,-999,-99.99,,,-99.99,,2013-01-15 04:53:00,
2013-01-14 22:00:00,-9.0,-99.9,-100.00,East,89,7.0,7.0,-999,-99.99,,,-99.99,,2013-01-15 05:00:00,
2013-01-14 22:33:00,-9.0,-99.9,-100.00,East,89,7.0,7.0,-999,-99.99,,,-99.99,,2013-01-15 05:33:00,
2013-01-14 22:43:00,-9.0,-99.9,-100.00,East,89,7.0,7.0,-999,-99.99,,,-99.99,,2013-01-15 05:43:00,
2013-01-14 22:53:00,-9.0,-99.9,-100.00,East,89,7.0,7.0,-999,-99.99,,,-99.99,,2013-01-15 05:53:00,
2013-01-14 23:00:00,-12.0,-99.9,-100.00,East,91,7.0,7.0,-999,-99.99,,,-99.99,,2013-01-15 06:00:00,
2013-01-14 23:33:00,-12.0,-99.9,-100.00,East,91,7.0,7.0,-999,-99.99,,,-99.99,,2013-01-15 06:33:00,
2013-01-14 23:43:00,-12.0,-99.9,-100.00,East,91,7.0,7.0,-999,-99.99,,,-99.99,,2013-01-15 06:43:00,
2013-01-14 23:53:00,-12.0,-99.9,-100.00,East,91,7.0,7.0,-999,-99.99,,,-99.99,,2013-01-15 06:53:00,